Saint Bonnet de Bellac- Haute Vienne - France
Donnes mto: lundi, 21/05/2012
Date Horaire Temp. E. Hum. E. P.atmo. Pluie Vent Direction Direction Ensoleilleme Solaire P. de rose Temp au vent Rafales
21/05/2012 00:00 10,8 C 93 % 1004,1 hPa 0,0 mm 0,4 km/h (0 Bft) SO 225 0 min 0 W/m 9,7 C 10,8 C 3,6 km/h (1 Bft)
21/05/2012 00:10 10,8 C 93 % 1004,1 hPa 0,0 mm 2,9 km/h (1 Bft) S-SO 202 0 min 0 W/m 9,7 C 10,8 C 3,6 km/h (1 Bft)
21/05/2012 00:20 10,8 C 93 % 1003,8 hPa 0,0 mm 1,8 km/h (1 Bft) S-SO 202 0 min 0 W/m 9,7 C 10,8 C 3,6 km/h (1 Bft)
21/05/2012 00:30 10,8 C 93 % 1003,4 hPa 0,0 mm 1,1 km/h (1 Bft) SO 225 0 min 0 W/m 9,7 C 10,8 C 4,3 km/h (1 Bft)
21/05/2012 00:40 10,8 C 93 % 1003,2 hPa 0,0 mm 4,0 km/h (1 Bft) SO 225 0 min 0 W/m 9,7 C 10,8 C 6,5 km/h (2 Bft)
21/05/2012 00:50 10,7 C 94 % 1003,4 hPa 0,0 mm 0,7 km/h (0 Bft) S-SO 202 0 min 0 W/m 9,8 C 10,7 C 6,8 km/h (2 Bft)
21/05/2012 01:00 10,6 C 94 % 1003,4 hPa 0,0 mm 4,0 km/h (1 Bft) S-SO 202 0 min 0 W/m 9,7 C 10,6 C 6,5 km/h (2 Bft)
21/05/2012 01:10 10,6 C 94 % 1003,6 hPa 0,0 mm 0,7 km/h (0 Bft) S-SO 202 0 min 0 W/m 9,7 C 10,6 C 0,7 km/h (0 Bft)
21/05/2012 01:20 10,6 C 94 % 1003,6 hPa 0,0 mm 4,0 km/h (1 Bft) S-SO 202 0 min 0 W/m 9,7 C 10,6 C 7,9 km/h (2 Bft)
21/05/2012 01:30 10,6 C 94 % 1003,4 hPa 0,0 mm 1,4 km/h (1 Bft) S 180 0 min 0 W/m 9,7 C 10,6 C 4,3 km/h (1 Bft)
21/05/2012 01:40 10,6 C 94 % 1003,4 hPa 0,0 mm 1,1 km/h (1 Bft) S-SO 202 0 min 0 W/m 9,7 C 10,6 C 4,3 km/h (1 Bft)
21/05/2012 01:50 10,6 C 94 % 1003,3 hPa 0,0 mm 0,7 km/h (0 Bft) S-SO 202 0 min 0 W/m 9,7 C 10,6 C 3,2 km/h (1 Bft)
21/05/2012 02:00 10,7 C 94 % 1003,2 hPa 0,0 mm 2,9 km/h (1 Bft) SO 225 0 min 0 W/m 9,8 C 10,7 C 4,3 km/h (1 Bft)
21/05/2012 02:10 10,6 C 94 % 1002,9 hPa 0,0 mm 2,5 km/h (1 Bft) SO 225 0 min 0 W/m 9,7 C 10,6 C 3,6 km/h (1 Bft)
21/05/2012 02:20 10,6 C 94 % 1003,1 hPa 0,0 mm 2,5 km/h (1 Bft) S-SO 202 0 min 0 W/m 9,7 C 10,6 C 4,3 km/h (1 Bft)
21/05/2012 02:30 10,6 C 94 % 1003,2 hPa 0,0 mm 2,9 km/h (1 Bft) SO 225 0 min 0 W/m 9,7 C 10,6 C 3,2 km/h (1 Bft)
21/05/2012 02:40 10,6 C 94 % 1003,1 hPa 0,0 mm 5,4 km/h (2 Bft) SO 225 0 min 0 W/m 9,7 C 10,6 C 9,4 km/h (2 Bft)
21/05/2012 02:50 10,6 C 94 % 1003,0 hPa 0,0 mm 2,2 km/h (1 Bft) S-SO 202 0 min 0 W/m 9,7 C 10,6 C 3,6 km/h (1 Bft)
21/05/2012 03:02 10,6 C 94 % 1003,0 hPa 0,0 mm 2,9 km/h (1 Bft) S 180 0 min 0 W/m 9,7 C 10,6 C 10,1 km/h (2 Bft)
21/05/2012 03:10 10,6 C 94 % 1003,0 hPa 0,0 mm 2,2 km/h (1 Bft) S-SO 202 0 min 0 W/m 9,7 C 10,6 C 4,3 km/h (1 Bft)
21/05/2012 03:20 10,6 C 94 % 1002,8 hPa 0,0 mm 0,4 km/h (0 Bft) SO 225 0 min 0 W/m 9,7 C 10,6 C 3,6 km/h (1 Bft)
21/05/2012 03:30 10,6 C 94 % 1002,7 hPa 0,0 mm 0,7 km/h (0 Bft) SO 225 0 min 0 W/m 9,7 C 10,6 C 3,6 km/h (1 Bft)
21/05/2012 03:40 10,6 C 94 % 1002,7 hPa 0,0 mm 0,4 km/h (0 Bft) SO 225 0 min 0 W/m 9,7 C 10,6 C 3,2 km/h (1 Bft)
21/05/2012 03:50 10,6 C 94 % 1002,7 hPa 0,0 mm 0,7 km/h (0 Bft) SO 225 0 min 0 W/m 9,7 C 10,6 C 4,0 km/h (1 Bft)
21/05/2012 04:00 10,6 C 94 % 1002,6 hPa 0,0 mm 0,4 km/h (0 Bft) SO 225 0 min 0 W/m 9,7 C 10,6 C 1,4 km/h (1 Bft)
21/05/2012 04:10 10,6 C 94 % 1002,6 hPa 0,0 mm 2,5 km/h (1 Bft) S-SO 202 0 min 0 W/m 9,7 C 10,6 C 4,0 km/h (1 Bft)
21/05/2012 04:20 10,6 C 94 % 1002,6 hPa 0,0 mm 0,7 km/h (0 Bft) SO 225 0 min 0 W/m 9,7 C 10,6 C 4,3 km/h (1 Bft)
21/05/2012 04:30 10,6 C 94 % 1002,5 hPa 0,0 mm 0,4 km/h (0 Bft) SO 225 0 min 0 W/m 9,7 C 10,6 C 4,0 km/h (1 Bft)
21/05/2012 04:40 10,5 C 94 % 1002,5 hPa 0,0 mm 1,1 km/h (1 Bft) SO 225 0 min 0 W/m 9,6 C 10,5 C 6,8 km/h (2 Bft)
21/05/2012 04:50 10,5 C 94 % 1002,4 hPa 0,0 mm 0,0 km/h (0 Bft) O-SO 247 0 min 0 W/m 9,6 C 10,5 C 0,0 km/h (0 Bft)
21/05/2012 05:00 10,4 C 94 % 1002,4 hPa 0,0 mm 0,0 km/h (0 Bft) O-SO 247 0 min 0 W/m 9,5 C 10,4 C 3,2 km/h (1 Bft)
21/05/2012 05:10 10,4 C 94 % 1002,3 hPa 0,0 mm 5,4 km/h (2 Bft) S-SO 202 0 min 0 W/m 9,5 C 10,4 C 8,6 km/h (2 Bft)
21/05/2012 05:20 10,4 C 94 % 1002,3 hPa 0,0 mm 0,0 km/h (0 Bft) O-SO 247 0 min 0 W/m 9,5 C 10,4 C 0,0 km/h (0 Bft)
21/05/2012 05:30 10,4 C 94 % 1002,3 hPa 0,0 mm 0,0 km/h (0 Bft) O-SO 247 0 min 0 W/m 9,5 C 10,4 C 0,0 km/h (0 Bft)
21/05/2012 05:40 10,3 C 94 % 1002,2 hPa 0,0 mm 2,2 km/h (1 Bft) SO 225 0 min 0 W/m 9,4 C 10,3 C 4,3 km/h (1 Bft)
21/05/2012 05:50 10,3 C 94 % 1002,3 hPa 0,0 mm 0,7 km/h (0 Bft) S-SO 202 0 min 0 W/m 9,4 C 10,3 C 0,7 km/h (0 Bft)
21/05/2012 06:00 10,3 C 94 % 1002,4 hPa 0,0 mm 3,6 km/h (1 Bft) SO 225 0 min 0 W/m 9,4 C 10,3 C 6,1 km/h (2 Bft)
21/05/2012 06:10 10,3 C 94 % 1002,5 hPa 0,0 mm 1,4 km/h (1 Bft) SO 225 0 min 0 W/m 9,4 C 10,3 C 4,3 km/h (1 Bft)
21/05/2012 06:20 10,3 C 94 % 1002,6 hPa 0,0 mm 0,0 km/h (0 Bft) O-SO 247 0 min 0 W/m 9,4 C 10,3 C 0,0 km/h (0 Bft)
21/05/2012 06:30 10,3 C 94 % 1002,7 hPa 0,0 mm 0,0 km/h (0 Bft) O-SO 247 0 min 0 W/m 9,4 C 10,3 C 2,9 km/h (1 Bft)
21/05/2012 06:40 10,3 C 94 % 1002,8 hPa 0,0 mm 0,0 km/h (0 Bft) O-SO 247 0 min 0 W/m 9,4 C 10,3 C 0,0 km/h (0 Bft)
21/05/2012 06:50 10,3 C 94 % 1003,0 hPa 0,0 mm 0,4 km/h (0 Bft) O-SO 247 0 min 0 W/m 9,4 C 10,3 C 3,2 km/h (1 Bft)
21/05/2012 07:00 10,3 C 94 % 1003,1 hPa 0,0 mm 0,0 km/h (0 Bft) SO 225 0 min 0 W/m 9,4 C 10,3 C 0,0 km/h (0 Bft)
21/05/2012 07:10 10,4 C 94 % 1003,1 hPa 0,0 mm 1,1 km/h (1 Bft) SO 225 0 min 0 W/m 9,5 C 10,4 C 4,3 km/h (1 Bft)
21/05/2012 07:20 10,4 C 94 % 1003,4 hPa 0,0 mm 0,0 km/h (0 Bft) SO 225 0 min 0 W/m 9,5 C 10,4 C 0,0 km/h (0 Bft)
21/05/2012 07:30 10,4 C 94 % 1003,4 hPa 0,0 mm 0,0 km/h (0 Bft) O-SO 247 0 min 0 W/m 9,5 C 10,4 C 1,4 km/h (1 Bft)
21/05/2012 07:40 10,4 C 94 % 1003,3 hPa 0,0 mm 0,0 km/h (0 Bft) S-SO 202 0 min 0 W/m 9,5 C 10,4 C 0,0 km/h (0 Bft)
21/05/2012 07:50 10,5 C 94 % 1003,4 hPa 0,0 mm 0,4 km/h (0 Bft) O-SO 247 0 min 0 W/m 9,6 C 10,5 C 3,2 km/h (1 Bft)
21/05/2012 08:00 10,5 C 94 % 1003,4 hPa 0,0 mm 1,1 km/h (1 Bft) SO 225 0 min 0 W/m 9,6 C 10,5 C 1,1 km/h (1 Bft)
21/05/2012 08:10 10,6 C 94 % 1003,3 hPa 0,0 mm 1,8 km/h (1 Bft) SO 225 0 min 0 W/m 9,7 C 10,6 C 4,3 km/h (1 Bft)
21/05/2012 08:20 10,6 C 94 % 1003,4 hPa 0,0 mm 0,0 km/h (0 Bft) O-SO 247 0 min 0 W/m 9,7 C 10,6 C 0,0 km/h (0 Bft)
21/05/2012 08:30 10,8 C 94 % 1003,4 hPa 0,0 mm 3,2 km/h (1 Bft) O-SO 247 0 min 0 W/m 9,9 C 10,8 C 8,6 km/h (2 Bft)
21/05/2012 08:40 10,8 C 94 % 1003,5 hPa 0,0 mm 2,2 km/h (1 Bft) SO 225 0 min 0 W/m 9,9 C 10,8 C 4,3 km/h (1 Bft)
21/05/2012 08:50 10,8 C 94 % 1003,5 hPa 0,0 mm 0,7 km/h (0 Bft) O-SO 247 0 min 0 W/m 9,9 C 10,8 C 4,0 km/h (1 Bft)
21/05/2012 09:00 10,8 C 94 % 1003,7 hPa 0,0 mm 1,1 km/h (1 Bft) O 270 0 min 0 W/m 9,9 C 10,8 C 3,2 km/h (1 Bft)
21/05/2012 09:10 10,8 C 94 % 1003,8 hPa 0,0 mm 0,7 km/h (0 Bft) O 270 0 min 0 W/m 9,9 C 10,8 C 4,0 km/h (1 Bft)
21/05/2012 09:20 10,9 C 94 % 1003,8 hPa 0,0 mm 0,4 km/h (0 Bft) SO 225 0 min 0 W/m 10,0 C 10,9 C 0,4 km/h (0 Bft)
21/05/2012 09:30 10,9 C 94 % 1004,1 hPa 0,0 mm 2,5 km/h (1 Bft) O-SO 247 0 min 0 W/m 10,0 C 10,9 C 3,6 km/h (1 Bft)
21/05/2012 09:40 10,9 C 94 % 1004,2 hPa 0,0 mm 1,4 km/h (1 Bft) O-SO 247 0 min 0 W/m 10,0 C 10,9 C 3,6 km/h (1 Bft)
21/05/2012 09:50 11,1 C 94 % 1004,2 hPa 0,0 mm 0,0 km/h (0 Bft) S-SO 202 0 min 0 W/m 10,2 C 11,1 C 0,0 km/h (0 Bft)
21/05/2012 10:00 11,2 C 93 % 1004,3 hPa 0,0 mm 3,6 km/h (1 Bft) S-SO 202 0 min 0 W/m 10,1 C 11,2 C 7,2 km/h (2 Bft)
21/05/2012 10:10 11,3 C 93 % 1004,3 hPa 0,0 mm 3,2 km/h (1 Bft) SO 225 0 min 0 W/m 10,2 C 11,3 C 6,5 km/h (2 Bft)
21/05/2012 10:20 11,4 C 93 % 1004,1 hPa 0,0 mm 1,8 km/h (1 Bft) SO 225 0 min 0 W/m 10,3 C 11,4 C 1,8 km/h (1 Bft)
21/05/2012 10:30 11,4 C 93 % 1004,1 hPa 0,0 mm 2,2 km/h (1 Bft) SO 225 0 min 0 W/m 10,3 C 11,4 C 3,6 km/h (1 Bft)
21/05/2012 10:40 11,7 C 93 % 1004,1 hPa 0,0 mm 0,7 km/h (0 Bft) SO 225 0 min 0 W/m 10,6 C 11,7 C 4,0 km/h (1 Bft)
21/05/2012 10:50 11,8 C 92 % 1004,0 hPa 0,0 mm 1,4 km/h (1 Bft) SO 225 0 min 0 W/m 10,5 C 11,8 C 3,6 km/h (1 Bft)
21/05/2012 11:00 12,0 C 92 % 1004,1 hPa 0,0 mm 1,8 km/h (1 Bft) O-NO 292 0 min 0 W/m 10,7 C 12,0 C 4,3 km/h (1 Bft)
21/05/2012 11:10 12,2 C 92 % 1004,2 hPa 0,0 mm 4,0 km/h (1 Bft) O 270 0 min 0 W/m 10,9 C 12,2 C 9,4 km/h (2 Bft)
21/05/2012 11:20 12,4 C 91 % 1004,1 hPa 0,0 mm 2,9 km/h (1 Bft) O-SO 247 0 min 0 W/m 11,0 C 12,4 C 6,1 km/h (2 Bft)
21/05/2012 11:30 12,4 C 90 % 1004,1 hPa 0,0 mm 7,6 km/h (2 Bft) S-SO 202 0 min 0 W/m 10,8 C 12,4 C 11,9 km/h (2 Bft)
21/05/2012 11:40 12,5 C 90 % 1004,1 hPa 0,0 mm 2,2 km/h (1 Bft) N-NO 337 0 min 0 W/m 10,9 C 12,5 C 4,0 km/h (1 Bft)
21/05/2012 11:50 12,6 C 90 % 1004,1 hPa 0,0 mm 0,7 km/h (0 Bft) O-SO 247 0 min 0 W/m 11,0 C 12,6 C 3,2 km/h (1 Bft)
21/05/2012 12:00 12,6 C 90 % 1004,1 hPa 0,1 mm 0,7 km/h (0 Bft) O-NO 292 0 min 0 W/m 11,0 C 12,6 C 0,7 km/h (0 Bft)
21/05/2012 12:10 12,5 C 90 % 1004,2 hPa 0,0 mm 1,8 km/h (1 Bft) O-SO 247 0 min 0 W/m 10,9 C 12,5 C 4,0 km/h (1 Bft)
21/05/2012 12:20 12,6 C 90 % 1004,3 hPa 0,0 mm 0,7 km/h (0 Bft) O-SO 247 0 min 0 W/m 11,0 C 12,6 C 4,0 km/h (1 Bft)
21/05/2012 12:30 12,8 C 90 % 1004,2 hPa 0,0 mm 6,8 km/h (2 Bft) O-SO 247 0 min 0 W/m 11,2 C 12,8 C 12,6 km/h (3 Bft)
21/05/2012 12:40 12,8 C 90 % 1004,4 hPa 0,0 mm 2,2 km/h (1 Bft) O-NO 292 0 min 0 W/m 11,2 C 12,8 C 2,9 km/h (1 Bft)
21/05/2012 12:50 12,8 C 89 % 1004,4 hPa 0,0 mm 3,6 km/h (1 Bft) O-NO 292 0 min 0 W/m 11,0 C 12,8 C 11,5 km/h (2 Bft)
21/05/2012 13:00 12,8 C 90 % 1004,5 hPa 0,0 mm 1,4 km/h (1 Bft) SO 225 0 min 0 W/m 11,2 C 12,8 C 3,6 km/h (1 Bft)
21/05/2012 13:10 12,8 C 90 % 1004,6 hPa 0,0 mm 2,9 km/h (1 Bft) NO 315 0 min 0 W/m 11,2 C 12,8 C 7,6 km/h (2 Bft)
21/05/2012 13:20 12,8 C 90 % 1004,7 hPa 0,0 mm 0,0 km/h (0 Bft) O-NO 292 0 min 0 W/m 11,2 C 12,8 C 0,0 km/h (0 Bft)
21/05/2012 13:30 12,7 C 90 % 1004,7 hPa 0,0 mm 2,5 km/h (1 Bft) O 270 0 min 0 W/m 11,1 C 12,7 C 3,6 km/h (1 Bft)
21/05/2012 13:40 12,6 C 90 % 1004,6 hPa 0,0 mm 1,8 km/h (1 Bft) S-SO 202 0 min 0 W/m 11,0 C 12,6 C 7,2 km/h (2 Bft)
21/05/2012 13:50 12,8 C 90 % 1004,6 hPa 0,0 mm 1,4 km/h (1 Bft) N-NO 337 0 min 0 W/m 11,2 C 12,8 C 6,1 km/h (2 Bft)
21/05/2012 14:00 12,8 C 90 % 1004,5 hPa 0,0 mm 3,6 km/h (1 Bft) O-SO 247 0 min 0 W/m 11,2 C 12,8 C 11,2 km/h (2 Bft)
21/05/2012 14:10 12,9 C 90 % 1004,5 hPa 0,0 mm 1,1 km/h (1 Bft) SO 225 0 min 0 W/m 11,3 C 12,9 C 4,0 km/h (1 Bft)
21/05/2012 14:20 13,1 C 90 % 1004,5 hPa 0,0 mm 2,2 km/h (1 Bft) O 270 0 min 0 W/m 11,5 C 13,1 C 4,0 km/h (1 Bft)
21/05/2012 14:30 13,2 C 90 % 1004,4 hPa 0,0 mm 1,4 km/h (1 Bft) S-SO 202 0 min 0 W/m 11,6 C 13,2 C 4,0 km/h (1 Bft)
21/05/2012 14:40 13,5 C 89 % 1004,3 hPa 0,0 mm 2,2 km/h (1 Bft) O-SO 247 0 min 0 W/m 11,7 C 13,5 C 7,9 km/h (2 Bft)
21/05/2012 14:50 13,6 C 89 % 1004,3 hPa 0,0 mm 2,5 km/h (1 Bft) O-NO 292 0 min 0 W/m 11,8 C 13,6 C 6,8 km/h (2 Bft)
21/05/2012 15:00 13,6 C 88 % 1004,3 hPa 0,0 mm 7,2 km/h (2 Bft) O 270 0 min 0 W/m 11,6 C 13,6 C 9,7 km/h (2 Bft)
21/05/2012 15:10 13,6 C 89 % 1004,4 hPa 0,0 mm 1,8 km/h (1 Bft) O-SO 247 0 min 0 W/m 11,8 C 13,6 C 3,2 km/h (1 Bft)
21/05/2012 15:20 13,4 C 90 % 1004,6 hPa 0,2 mm 6,1 km/h (2 Bft) O 270 0 min 0 W/m 11,8 C 13,4 C 13,0 km/h (3 Bft)
21/05/2012 15:30 13,3 C 90 % 1004,8 hPa 0,4 mm 0,7 km/h (0 Bft) NO 315 0 min 0 W/m 11,7 C 13,3 C 3,6 km/h (1 Bft)
21/05/2012 15:40 13,3 C 91 % 1004,7 hPa 0,3 mm 0,4 km/h (0 Bft) O 270 0 min 0 W/m 11,9 C 13,3 C 0,4 km/h (0 Bft)
21/05/2012 15:50 13,2 C 91 % 1004,8 hPa 0,2 mm 0,4 km/h (0 Bft) O-SO 247 0 min 0 W/m 11,8 C 13,2 C 4,0 km/h (1 Bft)
21/05/2012 16:00 13,1 C 91 % 1004,9 hPa 0,3 mm 6,1 km/h (2 Bft) O-NO 292 0 min 0 W/m 11,7 C 13,1 C 8,3 km/h (2 Bft)
21/05/2012 16:10 12,9 C 91 % 1005,1 hPa 0,2 mm 6,1 km/h (2 Bft) N-NO 337 0 min 0 W/m 11,5 C 12,9 C 6,1 km/h (2 Bft)
21/05/2012 16:20 12,6 C 91 % 1005,0 hPa 0,2 mm 5,8 km/h (2 Bft) N-NO 337 0 min 0 W/m 11,2 C 12,6 C 10,8 km/h (2 Bft)
21/05/2012 16:30 12,5 C 91 % 1005,1 hPa 0,1 mm 13,3 km/h (3 Bft) NO 315 0 min 0 W/m 11,1 C 12,5 C 23,8 km/h (4 Bft)
21/05/2012 16:40 12,3 C 91 % 1005,2 hPa 0,2 mm 4,7 km/h (1 Bft) N-NO 337 0 min 0 W/m 10,9 C 12,3 C 6,8 km/h (2 Bft)
21/05/2012 16:50 12,2 C 91 % 1005,2 hPa 0,2 mm 9,4 km/h (2 Bft) NO 315 0 min 0 W/m 10,8 C 12,2 C 15,8 km/h (3 Bft)
21/05/2012 17:00 12,1 C 91 % 1005,3 hPa 0,2 mm 6,1 km/h (2 Bft) O-NO 292 0 min 0 W/m 10,7 C 12,1 C 7,2 km/h (2 Bft)
21/05/2012 17:10 11,9 C 92 % 1005,3 hPa 0,1 mm 11,5 km/h (2 Bft) O 270 0 min 0 W/m 10,6 C 11,9 C 18,0 km/h (3 Bft)
21/05/2012 17:20 11,9 C 92 % 1005,4 hPa 0,2 mm 2,2 km/h (1 Bft) NO 315 0 min 0 W/m 10,6 C 11,9 C 3,6 km/h (1 Bft)
21/05/2012 17:30 11,8 C 92 % 1005,5 hPa 0,3 mm 10,1 km/h (2 Bft) N-NO 337 0 min 0 W/m 10,5 C 11,8 C 15,1 km/h (3 Bft)
21/05/2012 17:40 11,8 C 92 % 1005,6 hPa 0,2 mm 6,8 km/h (2 Bft) NO 315 0 min 0 W/m 10,5 C 11,8 C 13,0 km/h (3 Bft)
21/05/2012 17:50 11,8 C 92 % 1005,6 hPa 0,1 mm 2,5 km/h (1 Bft) NO 315 0 min 0 W/m 10,5 C 11,8 C 7,2 km/h (2 Bft)
21/05/2012 18:00 11,7 C 92 % 1005,7 hPa 0,0 mm 7,6 km/h (2 Bft) N-NO 337 0 min 0 W/m 10,4 C 11,7 C 11,5 km/h (2 Bft)
21/05/2012 18:10 11,6 C 92 % 1005,7 hPa 0,1 mm 11,2 km/h (2 Bft) O-SO 247 0 min 0 W/m 10,3 C 11,6 C 18,7 km/h (3 Bft)
21/05/2012 18:20 11,6 C 92 % 1005,7 hPa 0,0 mm 12,2 km/h (2 Bft) SO 225 0 min 0 W/m 10,3 C 11,6 C 20,9 km/h (4 Bft)
21/05/2012 18:30 11,7 C 92 % 1006,0 hPa 0,0 mm 2,5 km/h (1 Bft) N-NO 337 0 min 0 W/m 10,4 C 11,7 C 9,4 km/h (2 Bft)
21/05/2012 18:40 11,8 C 93 % 1006,0 hPa 0,0 mm 1,4 km/h (1 Bft) NO 315 0 min 0 W/m 10,7 C 11,8 C 4,3 km/h (1 Bft)
21/05/2012 18:50 11,8 C 93 % 1006,1 hPa 0,0 mm 9,0 km/h (2 Bft) N-NO 337 0 min 0 W/m 10,7 C 11,8 C 14,8 km/h (3 Bft)
21/05/2012 19:00 11,8 C 93 % 1006,0 hPa 0,0 mm 13,7 km/h (3 Bft) N 360 0 min 0 W/m 10,7 C 11,8 C 23,4 km/h (4 Bft)
21/05/2012 19:10 11,8 C 93 % 1006,2 hPa 0,1 mm 7,2 km/h (2 Bft) O 270 0 min 0 W/m 10,7 C 11,8 C 12,6 km/h (3 Bft)
21/05/2012 19:20 11,7 C 93 % 1006,4 hPa 0,0 mm 7,2 km/h (2 Bft) N-NO 337 0 min 0 W/m 10,6 C 11,7 C 14,4 km/h (3 Bft)
21/05/2012 19:30 11,6 C 93 % 1006,5 hPa 0,0 mm 4,7 km/h (1 Bft) O-NO 292 0 min 0 W/m 10,5 C 11,6 C 8,3 km/h (2 Bft)
21/05/2012 19:40 11,6 C 93 % 1006,5 hPa 0,0 mm 8,6 km/h (2 Bft) N-NO 337 0 min 0 W/m 10,5 C 11,6 C 9,7 km/h (2 Bft)
21/05/2012 19:50 11,6 C 93 % 1006,5 hPa 0,0 mm 2,9 km/h (1 Bft) NO 315 0 min 0 W/m 10,5 C 11,6 C 4,3 km/h (1 Bft)
21/05/2012 20:00 11,5 C 93 % 1006,7 hPa 0,0 mm 6,5 km/h (2 Bft) N-NO 337 0 min 0 W/m 10,4 C 11,5 C 10,4 km/h (2 Bft)
21/05/2012 20:10 11,4 C 93 % 1006,9 hPa 0,1 mm 9,4 km/h (2 Bft) O-SO 247 0 min 0 W/m 10,3 C 11,4 C 9,4 km/h (2 Bft)
21/05/2012 20:20 11,4 C 93 % 1006,8 hPa 0,0 mm 9,4 km/h (2 Bft) O-NO 292 0 min 0 W/m 10,3 C 11,4 C 16,6 km/h (3 Bft)
21/05/2012 20:30 11,4 C 93 % 1007,1 hPa 0,0 mm 9,0 km/h (2 Bft) NO 315 0 min 0 W/m 10,3 C 11,4 C 20,2 km/h (4 Bft)
21/05/2012 20:40 11,3 C 93 % 1007,2 hPa 0,1 mm 7,9 km/h (2 Bft) NO 315 0 min 0 W/m 10,2 C 11,3 C 12,6 km/h (3 Bft)
21/05/2012 20:50 11,3 C 93 % 1007,3 hPa 0,0 mm 6,5 km/h (2 Bft) O-NO 292 0 min 0 W/m 10,2 C 11,3 C 13,3 km/h (3 Bft)
21/05/2012 21:00 11,2 C 93 % 1007,3 hPa 0,1 mm 18,4 km/h (3 Bft) O 270 0 min 0 W/m 10,1 C 11,2 C 18,4 km/h (3 Bft)
21/05/2012 21:10 11,1 C 93 % 1007,3 hPa 0,0 mm 17,3 km/h (3 Bft) O 270 0 min 0 W/m 10,0 C 11,1 C 22,7 km/h (4 Bft)
21/05/2012 21:20 11,1 C 93 % 1007,5 hPa 0,0 mm 14,8 km/h (3 Bft) NO 315 0 min 0 W/m 10,0 C 11,1 C 21,6 km/h (4 Bft)
21/05/2012 21:30 10,9 C 93 % 1007,5 hPa 0,1 mm 12,2 km/h (2 Bft) NO 315 0 min 0 W/m 9,8 C 10,9 C 12,2 km/h (2 Bft)
21/05/2012 21:40 10,9 C 93 % 1007,7 hPa 0,2 mm 8,3 km/h (2 Bft) O-NO 292 0 min 0 W/m 9,8 C 10,9 C 8,3 km/h (2 Bft)
21/05/2012 21:50 10,9 C 93 % 1007,9 hPa 0,0 mm 14,8 km/h (3 Bft) O-NO 292 0 min 0 W/m 9,8 C 10,9 C 26,6 km/h (4 Bft)
21/05/2012 22:00 10,9 C 93 % 1007,9 hPa 0,1 mm 4,7 km/h (1 Bft) O-NO 292 0 min 0 W/m 9,8 C 10,9 C 15,5 km/h (3 Bft)
21/05/2012 22:10 10,8 C 93 % 1008,1 hPa 0,1 mm 10,8 km/h (2 Bft) NO 315 0 min 0 W/m 9,7 C 10,8 C 20,5 km/h (4 Bft)
21/05/2012 22:20 10,8 C 93 % 1008,2 hPa 0,0 mm 12,2 km/h (2 Bft) N-NO 337 0 min 0 W/m 9,7 C 10,8 C 17,6 km/h (3 Bft)
21/05/2012 22:30 10,8 C 93 % 1008,3 hPa 0,1 mm 11,2 km/h (2 Bft) NO 315 0 min 0 W/m 9,7 C 10,8 C 11,2 km/h (2 Bft)
21/05/2012 22:40 10,8 C 93 % 1008,5 hPa 0,0 mm 12,2 km/h (2 Bft) N 360 0 min 0 W/m 9,7 C 10,8 C 18,7 km/h (3 Bft)
21/05/2012 22:50 10,8 C 93 % 1008,5 hPa 0,1 mm 6,1 km/h (2 Bft) N-NO 337 0 min 0 W/m 9,7 C 10,8 C 10,1 km/h (2 Bft)
21/05/2012 23:00 10,8 C 93 % 1008,7 hPa 0,1 mm 7,9 km/h (2 Bft) O 270 0 min 0 W/m 9,7 C 10,8 C 17,3 km/h (3 Bft)
21/05/2012 23:10 10,8 C 93 % 1008,7 hPa 0,1 mm 10,4 km/h (2 Bft) O-NO 292 0 min 0 W/m 9,7 C 10,8 C 10,4 km/h (2 Bft)
21/05/2012 23:20 10,8 C 93 % 1008,8 hPa 0,1 mm 11,9 km/h (2 Bft) O 270 0 min 0 W/m 9,7 C 10,8 C 14,0 km/h (3 Bft)
21/05/2012 23:30 10,8 C 93 % 1008,9 hPa 0,2 mm 9,4 km/h (2 Bft) NO 315 0 min 0 W/m 9,7 C 10,8 C 23,4 km/h (4 Bft)
21/05/2012 23:40 10,8 C 93 % 1009,0 hPa 0,1 mm 10,1 km/h (2 Bft) NO 315 0 min 0 W/m 9,7 C 10,8 C 16,9 km/h (3 Bft)
21/05/2012 23:50 10,8 C 93 % 1009,0 hPa 0,0 mm 12,6 km/h (3 Bft) NO 315 0 min 0 W/m 9,7 C 10,8 C 18,7 km/h (3 Bft)
_ Min-Heure 07:00 15:00 05:40 - 13:20 - - - - 07:00 07:00 13:20
Minimum _ 10,3 C 88 % 1002,2 hPa - 0,0 km/h (0 Bft) - - - - 9,4 C 10,3 C 0,0 km/h (0 Bft)
_ Max-Heure 15:10 09:50 23:50 15:30 21:00 - - 23:50 23:50 15:40 15:10 21:50
Maximum _ 13,6 C 94 % 1009,0 hPa 0,4 mm 18,4 km/h
O (3 Bft)
- - 0 min 0 W/m 11,9 C 13,6 C 26,6 km/h
O-NO (4 Bft)
Moyenne _ 11,4 C 93 % 1004,7 hPa #5,5 mm 4,2 km/h (1 Bft) SO - #0 min. 0 W/m 10,2 C 11,4 C 7,6 km/h (2 Bft)
Saint Bonnet de Bellac- Haute Vienne - France